Simultaneous Nadir Overpasses (SNOs) Predictions

Prediction of SNOs between NOAA-15 and METOP-C Satellite Orbit:

Table of predicted SNOs for the next 14.0 days since TLE Epoch: 2/9/2020
Index Date (NOAA-15) Time (NOAA-15) Lat,Lon (NOAA-15) SZA (NOAA-15 ) Date (METOP-C) Time (METOP-C) Lat,Lon (METOP-C) SZA (METOP-C ) Distance(km) Time Diff (sec)
1 02/22/2020 23:45:24 -80.89, 38.61 87.73 02/22/2020 23:44:17 -80.89, 38.71 87.75 1.73 67
2 02/23/2020 00:35:57 80.88,-153.96 92.27 02/23/2020 00:34:57 80.88,-154.09 92.23 2.40 60
3 02/23/2020 01:26:26 -80.88, 13.56 87.75 02/23/2020 01:25:38 -80.89, 13.52 87.75 1.86 48
4 02/23/2020 02:17:00 80.89,-179.37 92.23 02/23/2020 02:16:18 80.89,-179.28 92.22 1.69 42
5 02/23/2020 03:07:29 -80.89, -11.86 87.78 02/23/2020 03:07:00 -80.88, -12.02 87.80 2.93 29
6 02/23/2020 03:58:02 80.88, 155.58 92.22 02/23/2020 03:57:39 80.90, 155.54 92.22 1.66 23
7 02/23/2020 04:48:32 -80.89, -37.27 87.81 02/23/2020 04:48:21 -80.89, -37.21 87.81 1.11 11
8 02/23/2020 05:39:05 80.89, 130.17 92.19 02/23/2020 05:39:01 80.88, 129.99 92.17 3.21 4
9 02/23/2020 06:29:34 -80.88, -62.33 87.83 02/23/2020 06:29:42 -80.90, -62.40 87.82 2.12 8
10 02/23/2020 07:20:08 80.90, 104.76 92.15 02/23/2020 07:20:22 80.89, 104.81 92.16 0.92 14
11 02/23/2020 08:10:37 -80.89, -87.74 87.86 02/23/2020 08:11:03 -80.91, -87.59 87.82 3.23 26
12 02/23/2020 09:01:10 80.89, 79.71 92.14 02/23/2020 09:01:43 80.90, 79.62 92.15 2.20 33
13 02/23/2020 09:51:40 -80.90,-113.16 87.89 02/23/2020 09:52:25 -80.90,-113.13 87.88 0.53 45
14 02/23/2020 10:42:13 80.89, 54.30 92.11 02/23/2020 10:43:04 80.91, 54.43 92.15 2.78 51
15 02/23/2020 11:32:42 -80.89,-138.21 87.91 02/23/2020 11:33:46 -80.90,-138.32 87.88 2.52 64




NCC Satellite Simultaneous Nadir Overpasses (SNOs) Prediction Service
